This is the latest recevied weather packets stored in our database for station/object VA3BOO. If no packets are shown the sender has not sent any weather packets the latest 10 day(s).
| Time | Temp. | Humidity | Pressure | Rain* | Wind** | Luminosity | Snow |
|---|---|---|---|---|---|---|---|
| 1777551304 | 6.11° C | 88% | 1008.2 hPa | 0 mm | - | 102 W/m² | - |
| 1777551004 | 5.56° C | 89% | 1008.2 hPa | 0 mm | - | 105 W/m² | - |
| 1777550704 | 5.56° C | 89% | 1008.2 hPa | 0 mm | - | 88 W/m² | - |
| 1777550404 | 5.56° C | 89% | 1007.9 hPa | 0 mm | - | 68 W/m² | - |
| 1777550104 | 5.56° C | 90% | 1007.9 hPa | 0 mm | - | 66 W/m² | - |
| 1777549804 | 5.56° C | 90% | 1007.9 hPa | 0 mm | - | 54 W/m² | - |
| 1777549504 | 5.56° C | 91% | 1008.2 hPa | 0 mm | - | 49 W/m² | - |
| 1777549204 | 5.56° C | 91% | 1007.9 hPa | 0 mm | - | 60 W/m² | - |
| 1777548903 | 5.56° C | 91% | 1007.7 hPa | 0 mm | - | 55 W/m² | - |
| 1777548604 | 5.56° C | 91% | 1008 hPa | 0 mm | - | 31 W/m² | - |
| 1777548304 | 5.56° C | 91% | 1007.9 hPa | 0 mm | - | 24 W/m² | - |
| 1777548004 | 5.56° C | 91% | 1007.7 hPa | 0 mm | - | 22 W/m² | - |
| 1777547704 | 5.56° C | 92% | 1007.7 hPa | 0 mm | - | 20 W/m² | - |
| 1777547404 | 6.11° C | 93% | 1007.6 hPa | 0 mm | - | 18 W/m² | - |
| 1777547104 | 6.11° C | 92% | 1007.4 hPa | 0 mm | - | 17 W/m² | - |
| 1777546803 | 6.11° C | 92% | 1007.4 hPa | 0 mm | - | 18 W/m² | - |
| 1777546504 | 6.11° C | 92% | 1007.4 hPa | 0 mm | - | 18 W/m² | - |
| 1777546204 | 6.11° C | 93% | 1007.4 hPa | 0 mm | - | 14 W/m² | - |
| 1777545903 | 6.11° C | 93% | 1007.3 hPa | 0 mm | - | 11 W/m² | - |
| 1777545604 | 6.11° C | 94% | 1007.2 hPa | 0 mm | - | 12 W/m² | - |
| 1777545304 | 6.11° C | 93% | 1007 hPa | 0 mm | - | 7 W/m² | - |
| 1777545004 | 6.11° C | 93% | 1007.1 hPa | 0 mm | - | 8 W/m² | - |
| 1777544703 | 6.11° C | 93% | 1007 hPa | 0 mm | - | 6 W/m² | - |
| 1777544404 | 6.11° C | 93% | 1007 hPa | 0 mm | - | 5 W/m² | - |
| 1777544104 | 6.11° C | 92% | 1006.8 hPa | 0 mm | - | 3 W/m² | - |
* Rain latest hour (hover to see other rain measurements)
** Current wind speed in m/s (hover to see current wind gust speed)